Location: Pcim
(49.7500°N, 19.9670°E)
Time: 09:37:36
(UTC+02:00)

EO-79 - Pass Details

Date: 03 May 2024
Orbit: 563 x 574 km, 98.0° (Epoch: 20 May)

Event Time Altitude Azimuth Distance (km) Brightness Sun altitude
Rises 03:22:53 0° 20° (NNE) 2,803 ? -15.0°
Reaches altitude 10° 03:25:10 10° 29° (NNE) 1,900 ? -14.7°
Maximum altitude 03:29:01 37° 98° (E) 903 ? -14.3°
Drops below altitude 10° 03:32:50 10° 167° (SSE) 1,884 ? -13.9°
Enters shadow 03:33:21 - 169° (S) 2,083 ? -13.8°
